Flag for Canada Weather past 2 weeks in Wood Buffalo, Alberta, Canada

Now
20 °F

Cold.


Feels Like: 14 °F
Forecast: 13 / 22 °F
Wind: 5 mph from West

Location: Fort McMurray CS

Current Time: Dec 22, 2014 at 11:59:21 AM

Latest Report: Dec 22, 2014 at 11:00 AM


Visibility: N/A

Pressure: 29.90 "Hg

Humidity: 98%

Dew point: 20 °F

Location of Wood BuffaloLocation

Historic Weather in Wood Buffalo — Graph

°F

Wood Buffalo temperature yesterday

Maximum temperature yesterday: 22 °F (at 7:00 AM)
Minimum temperature yesterday: 18 °F (at 10:00 AM)
Average temperature yesterday: 20 °F

Past Weeks' High & Low Weather Summary

 TemperatureHumidityPressure
High41 °F (Dec 10, 1:00 PM)100% (Dec 9, 9:00 PM)30.40 "Hg (Dec 9, 9:00 PM)
Low-8 °F (Dec 17, 12:00 AM)62% (Dec 10, 1:00 PM)29.29 "Hg (Dec 11, 11:00 AM)
Average17 °F93%29.88 "Hg
* Reported Dec 7 10:00 AM — Dec 22 10:00 AM, Wood Buffalo, Weather by CustomWeather, © 2014

Note: Actual official high and low records may vary slightly from our data, if they occured in-between our weather recording intervals... More about our weather records

Advertising

Wood Buffalo weather history for previous 24 hours

 ConditionsComfort  
Time TempWeatherWind HumidityBarometerVisibility
10:00 AM
Dec 22
20 °FCold.3 mph100%29.88 "HgN/A
9:00 AM20 °FCold.3 mph100%29.86 "HgN/A
8:00 AM19 °FCold.3 mph99%29.83 "HgN/A
7:00 AM19 °FCold.2 mph95%29.81 "HgN/A
6:00 AM19 °FCold.2 mph95%29.79 "HgN/A
5:00 AM20 °FCold.1 mph97%29.77 "HgN/A
4:00 AM20 °FCold.No wind97%29.76 "HgN/A
3:00 AM20 °FCold.1 mph98%29.74 "HgN/A
2:00 AM20 °FCold.2 mph99%29.72 "HgN/A
1:00 AM20 °FCold.2 mph99%29.71 "HgN/A
12:00 AM20 °FCold.2 mph98%29.71 "HgN/A
11:00 PM
Dec 21
20 °FCold.2 mph98%29.70 "HgN/A
10:00 PM20 °FCold.5 mph95%29.68 "HgN/A
9:00 PM20 °FCold.6 mph95%29.66 "HgN/A
8:00 PM20 °FCold.5 mph95%29.65 "HgN/A
7:00 PM20 °FCold.6 mph95%29.65 "HgN/A
6:00 PM20 °FCold.7 mph95%29.63 "HgN/A
5:00 PM20 °FCold.5 mph97%29.62 "HgN/A
4:00 PM20 °FCold.6 mph97%29.60 "HgN/A
3:00 PM20 °FCold.8 mph93%29.59 "HgN/A
2:00 PM20 °FCold.10 mph93%29.57 "HgN/A
1:00 PM19 °FCold.12 mph93%29.55 "HgN/A
12:00 PM18 °FCold.12 mph93%29.54 "HgN/A
11:00 AM18 °FCold.10 mph94%29.55 "HgN/A
Weather by CustomWeather, © 2014

See weather overviewHow to use our weather pages